EZY353 ENAL-EGKK

Flight info

Callsign EZY353
Flight time 2h 4m
Altitude 37000
Route TUTOP DCT ATNAK/N0449F380 DCT TIPAN DCT WECOW DCT BINBO DCT AKOKO N866 BUKUT P7 BARMI
Aircraft A320/M-SDE3FGHIRWY/LB1

Departure

Time 2026-05-04 17:14
Airport Ålesund Airport (ENAL)

Arrival

Time 2026-05-04 19:18
Airport London Gatwick Airport (EGKK)
Time Latitude Longitude Altitude Speed Heading
2026-05-04 16:37 62.55890 6.11387 69 ft 0 kts 154°
2026-05-04 17:03 62.55914 6.11362 38 ft 2 kts 122°
2026-05-04 17:04 62.55914 6.11317 61 ft 0 kts 56°
2026-05-04 17:08 62.55942 6.11368 62 ft 9 kts 39°
2026-05-04 17:08 62.55985 6.11431 66 ft 6 kts 24°
2026-05-04 17:09 62.56007 6.11467 69 ft 5 kts 44°
2026-05-04 17:09 62.56049 6.11583 69 ft 11 kts 58°
2026-05-04 17:09 62.56082 6.11719 64 ft 9 kts 65°
2026-05-04 17:10 62.56126 6.11929 63 ft 7 kts 64°
2026-05-04 17:10 62.56301 6.12202 65 ft 10 kts 52°
2026-05-04 17:11 62.56334 6.12341 69 ft 11 kts 66°
2026-05-04 17:11 62.56366 6.12492 65 ft 11 kts 65°
2026-05-04 17:11 62.56433 6.12813 66 ft 9 kts 71°
2026-05-04 17:12 62.56435 6.12936 69 ft 7 kts 96°
2026-05-04 17:12 62.56474 6.12980 68 ft 6 kts 280°
2026-05-04 17:13 62.55931 6.10475 68 ft 163 kts 244°
2026-05-04 17:14 62.54205 6.02823 1827 ft 199 kts 247°
2026-05-04 17:14 62.53577 5.99920 2197 ft 224 kts 247°
2026-05-04 17:14 62.52166 5.93394 3655 ft 245 kts 247°
2026-05-04 17:15 62.51431 5.90031 4597 ft 249 kts 247°
2026-05-04 17:15 62.49441 5.83756 6411 ft 261 kts 223°
2026-05-04 17:16 62.46105 5.80303 8196 ft 271 kts 202°
2026-05-04 17:16 62.40663 5.76188 10363 ft 295 kts 202°
2026-05-04 17:17 62.38647 5.74644 10573 ft 319 kts 202°
2026-05-04 17:17 62.32116 5.69684 12438 ft 341 kts 202°
2026-05-04 17:18 62.29828 5.67961 13197 ft 345 kts 202°
2026-05-04 17:18 62.25282 5.64535 14558 ft 351 kts 202°
2026-05-04 17:19 62.20620 5.61043 15865 ft 357 kts 202°
2026-05-04 17:19 62.15892 5.57471 17201 ft 363 kts 204°
2026-05-04 17:20 62.11097 5.53792 18421 ft 368 kts 206°
2026-05-04 17:20 62.06270 5.50098 19662 ft 369 kts 208°
2026-05-04 17:20 62.03855 5.48254 19909 ft 369 kts 208°
2026-05-04 17:21 61.98863 5.45270 20778 ft 385 kts 196°
2026-05-04 17:21 61.93404 5.44619 21844 ft 395 kts 194°
2026-05-04 17:22 61.90649 5.44335 22352 ft 398 kts 194°
2026-05-04 17:22 61.87862 5.44050 22834 ft 401 kts 195°
2026-05-04 17:23 61.79416 5.43169 24071 ft 409 kts 197°
2026-05-04 17:23 61.76569 5.42875 24433 ft 411 kts 197°
2026-05-04 17:23 61.70822 5.42282 25097 ft 415 kts 197°
2026-05-04 17:24 61.67920 5.41984 25372 ft 418 kts 197°
2026-05-04 17:24 61.59117 5.41077 26418 ft 425 kts 196°
2026-05-04 17:25 61.56196 5.40780 26741 ft 427 kts 196°
2026-05-04 17:25 61.50218 5.40162 27278 ft 432 kts 196°
2026-05-04 17:26 61.44178 5.39534 27903 ft 436 kts 196°
2026-05-04 17:26 61.35014 5.38625 28769 ft 442 kts 196°
2026-05-04 17:27 61.28854 5.38004 29242 ft 446 kts 196°
2026-05-04 17:27 61.22615 5.37369 29640 ft 450 kts 196°
2026-05-04 17:28 61.16400 5.36766 30263 ft 449 kts 195°
2026-05-04 17:29 61.07043 5.35843 31151 ft 448 kts 195°
2026-05-04 17:29 60.97703 5.34900 31949 ft 448 kts 194°
2026-05-04 17:30 60.88350 5.33985 32687 ft 448 kts 193°
2026-05-04 17:31 60.82076 5.33376 33095 ft 449 kts 193°
2026-05-04 17:31 60.72743 5.32468 33930 ft 449 kts 193°
2026-05-04 17:32 60.66500 5.31866 34361 ft 450 kts 192°
2026-05-04 17:33 60.57084 5.30956 34862 ft 453 kts 192°
2026-05-04 17:33 60.54030 5.30664 35066 ft 452 kts 192°
2026-05-04 17:34 60.44621 5.29748 35659 ft 453 kts 191°
2026-05-04 17:34 60.41471 5.29446 35834 ft 453 kts 191°
2026-05-04 17:35 60.31964 5.28547 36374 ft 452 kts 191°
2026-05-04 17:35 60.25726 5.27966 36756 ft 451 kts 191°
2026-05-04 17:35 60.22590 5.27677 36896 ft 452 kts 191°
2026-05-04 17:36 60.19399 5.27378 36923 ft 453 kts 191°
2026-05-04 17:36 60.13141 5.26790 36918 ft 453 kts 190°
2026-05-04 17:37 60.06836 5.26204 36903 ft 453 kts 191°
2026-05-04 17:37 60.00550 5.25624 36929 ft 451 kts 190°
2026-05-04 17:38 59.94281 5.25045 36952 ft 450 kts 190°
2026-05-04 17:38 59.88023 5.24461 36946 ft 450 kts 190°
2026-05-04 17:39 59.78627 5.23589 36951 ft 450 kts 190°
2026-05-04 17:39 59.72416 5.23023 36904 ft 450 kts 190°
2026-05-04 17:40 59.66156 5.22451 36924 ft 449 kts 190°
2026-05-04 17:40 59.59908 5.21887 36924 ft 449 kts 190°
2026-05-04 17:41 59.54709 5.21415 36932 ft 449 kts 190°
2026-05-04 17:41 59.48459 5.20839 36895 ft 448 kts 189°
2026-05-04 17:42 59.42228 5.20286 36948 ft 448 kts 189°
2026-05-04 17:42 59.35995 5.19731 36956 ft 447 kts 189°
2026-05-04 17:43 59.29776 5.19173 36956 ft 447 kts 189°
2026-05-04 17:43 59.23517 5.18616 36956 ft 447 kts 189°
2026-05-04 17:44 59.17328 5.18074 36916 ft 446 kts 189°
2026-05-04 17:44 59.11130 5.17535 36929 ft 446 kts 189°
2026-05-04 17:45 59.04964 5.16996 36933 ft 446 kts 189°
2026-05-04 17:45 58.98756 5.16442 36938 ft 446 kts 189°
2026-05-04 17:46 58.92569 5.15895 36904 ft 445 kts 189°
2026-05-04 17:46 58.86370 5.15354 36915 ft 444 kts 189°
2026-05-04 17:47 58.80234 5.14824 36928 ft 444 kts 189°
2026-05-04 17:47 58.74059 5.14297 36935 ft 443 kts 189°
2026-05-04 17:48 58.67888 5.13759 36943 ft 443 kts 189°
2026-05-04 17:48 58.61730 5.13218 36943 ft 443 kts 189°
2026-05-04 17:49 58.55570 5.12690 36945 ft 443 kts 189°
2026-05-04 17:49 58.49412 5.12177 36943 ft 443 kts 189°
2026-05-04 17:50 58.43265 5.11657 36941 ft 443 kts 189°
2026-05-04 17:50 58.37132 5.11149 36901 ft 443 kts 189°
2026-05-04 17:51 58.30983 5.10638 36913 ft 442 kts 189°
2026-05-04 17:51 58.24823 5.10109 36924 ft 442 kts 189°
2026-05-04 17:52 58.18633 5.09586 36940 ft 442 kts 189°
2026-05-04 17:52 58.12532 5.09076 36941 ft 442 kts 189°
2026-05-04 17:53 58.06385 5.08559 36925 ft 442 kts 189°
2026-05-04 17:53 58.00232 5.08055 36935 ft 442 kts 189°
2026-05-04 17:54 57.94065 5.07554 36938 ft 442 kts 189°
2026-05-04 17:54 57.87908 5.07045 36949 ft 442 kts 189°
2026-05-04 17:55 57.81750 5.06533 36919 ft 442 kts 189°
2026-05-04 17:55 57.75640 5.06034 36932 ft 442 kts 188°
2026-05-04 17:56 57.69454 5.05539 36949 ft 442 kts 188°
2026-05-04 17:56 57.63338 5.05051 36954 ft 442 kts 188°
2026-05-04 17:57 57.57174 5.04545 36963 ft 442 kts 188°
2026-05-04 17:57 57.51015 5.04047 36935 ft 442 kts 188°
2026-05-04 17:58 57.44864 5.03560 36953 ft 442 kts 188°
2026-05-04 17:58 57.38753 5.03067 36963 ft 443 kts 188°
2026-05-04 17:59 57.32562 5.02554 36968 ft 443 kts 188°
2026-05-04 18:00 57.23388 5.01843 36955 ft 443 kts 188°
2026-05-04 18:00 57.17218 5.01360 36965 ft 443 kts 188°
2026-05-04 18:01 57.11058 5.00878 36973 ft 443 kts 188°
2026-05-04 18:01 57.04895 5.00398 36982 ft 443 kts 188°
2026-05-04 18:02 56.95728 4.98880 36475 ft 438 kts 193°
2026-05-04 18:02 56.92715 4.98074 36080 ft 437 kts 193°
2026-05-04 18:02 56.89699 4.97268 35963 ft 438 kts 193°
2026-05-04 18:03 56.83654 4.95659 36003 ft 439 kts 193°
2026-05-04 18:03 56.77617 4.94061 35996 ft 440 kts 193°
2026-05-04 18:04 56.71546 4.92475 36003 ft 440 kts 192°
2026-05-04 18:05 56.62422 4.90099 36006 ft 441 kts 193°
2026-05-04 18:05 56.56344 4.88511 36004 ft 441 kts 193°
2026-05-04 18:06 56.47232 4.86150 35977 ft 441 kts 192°
2026-05-04 18:06 56.41166 4.84571 35986 ft 441 kts 192°
2026-05-04 18:07 56.35085 4.82998 35989 ft 442 kts 192°
2026-05-04 18:07 56.29031 4.81442 36002 ft 442 kts 192°
2026-05-04 18:08 56.22934 4.79898 36005 ft 442 kts 192°
2026-05-04 18:08 56.16830 4.78335 35996 ft 442 kts 191°
2026-05-04 18:09 56.04627 4.75225 36009 ft 443 kts 191°
2026-05-04 18:10 55.98550 4.73685 36015 ft 443 kts 191°
2026-05-04 18:10 55.92441 4.72146 36016 ft 443 kts 191°
2026-05-04 18:11 55.86349 4.70619 36017 ft 443 kts 191°
2026-05-04 18:11 55.80233 4.69098 36017 ft 443 kts 191°
2026-05-04 18:12 55.74123 4.67573 36020 ft 443 kts 191°
2026-05-04 18:12 55.68013 4.66045 36006 ft 443 kts 191°
2026-05-04 18:13 55.61901 4.64533 36019 ft 443 kts 191°
2026-05-04 18:14 55.52761 4.62286 36027 ft 442 kts 191°
2026-05-04 18:14 55.46643 4.60768 36035 ft 442 kts 191°
2026-05-04 18:15 55.34443 4.57761 36036 ft 442 kts 190°
2026-05-04 18:16 55.28357 4.56279 36038 ft 442 kts 190°
2026-05-04 18:16 55.22288 4.54803 36043 ft 442 kts 190°
2026-05-04 18:17 55.13147 4.52592 36036 ft 442 kts 189°
2026-05-04 18:18 55.04001 4.50382 36039 ft 442 kts 189°
2026-05-04 18:18 54.97905 4.48928 36041 ft 442 kts 189°
2026-05-04 18:19 54.88788 4.46756 36038 ft 442 kts 189°
2026-05-04 18:19 54.82688 4.45299 36042 ft 442 kts 189°
2026-05-04 18:20 54.77577 4.44093 36041 ft 442 kts 189°
2026-05-04 18:20 54.71474 4.42643 36043 ft 443 kts 189°
2026-05-04 18:21 54.65397 4.41204 36042 ft 443 kts 189°
2026-05-04 18:21 54.59418 4.39104 36043 ft 440 kts 201°
2026-05-04 18:22 54.53919 4.34497 36050 ft 438 kts 209°
2026-05-04 18:22 54.48523 4.29580 36050 ft 439 kts 209°
2026-05-04 18:23 54.43115 4.24691 36043 ft 439 kts 208°
2026-05-04 18:23 54.37699 4.19818 36040 ft 439 kts 208°
2026-05-04 18:24 54.32326 4.14980 36046 ft 439 kts 208°
2026-05-04 18:24 54.26926 4.10120 36049 ft 439 kts 208°
2026-05-04 18:25 54.21516 4.05280 36049 ft 439 kts 208°
2026-05-04 18:25 54.16110 4.00457 36050 ft 438 kts 208°
2026-05-04 18:26 54.10721 3.95660 36073 ft 436 kts 208°
2026-05-04 18:26 54.05340 3.90885 36068 ft 435 kts 208°
2026-05-04 18:27 53.99963 3.86130 36063 ft 435 kts 208°
2026-05-04 18:27 53.94630 3.81428 36063 ft 434 kts 208°
2026-05-04 18:28 53.89266 3.76710 36071 ft 433 kts 209°
2026-05-04 18:28 53.83910 3.72004 36076 ft 432 kts 208°
2026-05-04 18:29 53.78574 3.67341 36070 ft 431 kts 208°
2026-05-04 18:29 53.73251 3.62708 36060 ft 431 kts 208°
2026-05-04 18:30 53.65215 3.55744 36044 ft 432 kts 208°
2026-05-04 18:31 53.59904 3.51129 36055 ft 431 kts 208°
2026-05-04 18:31 53.54570 3.46510 36056 ft 431 kts 208°
2026-05-04 18:32 53.49222 3.41919 36055 ft 431 kts 208°
2026-05-04 18:32 53.43877 3.37345 36054 ft 431 kts 208°
2026-05-04 18:33 53.38536 3.32755 36054 ft 431 kts 208°
2026-05-04 18:33 53.33196 3.28191 36045 ft 431 kts 208°
2026-05-04 18:34 53.27881 3.23670 36041 ft 431 kts 208°
2026-05-04 18:34 53.22533 3.19141 36041 ft 431 kts 208°
2026-05-04 18:35 53.17189 3.14617 36041 ft 430 kts 208°
2026-05-04 18:35 53.11848 3.10108 36053 ft 429 kts 208°
2026-05-04 18:36 53.06511 3.05617 36053 ft 429 kts 208°
2026-05-04 18:36 53.01181 3.01150 36036 ft 430 kts 208°
2026-05-04 18:37 52.95826 2.96674 36025 ft 430 kts 208°
2026-05-04 18:37 52.90477 2.92214 36059 ft 430 kts 208°
2026-05-04 18:38 52.85173 2.87795 36043 ft 429 kts 207°
2026-05-04 18:38 52.82504 2.85578 35902 ft 429 kts 207°
2026-05-04 18:38 52.79831 2.83360 35653 ft 428 kts 208°
2026-05-04 18:38 52.77161 2.81145 34905 ft 431 kts 208°
2026-05-04 18:39 52.74497 2.78938 34062 ft 432 kts 208°
2026-05-04 18:39 52.71802 2.76713 32969 ft 429 kts 207°
2026-05-04 18:39 52.69168 2.74547 32033 ft 418 kts 207°
2026-05-04 18:39 52.66594 2.72430 31090 ft 409 kts 207°
2026-05-04 18:40 52.64073 2.70357 30170 ft 400 kts 207°
2026-05-04 18:40 52.61595 2.68318 29325 ft 389 kts 207°
2026-05-04 18:40 52.59184 2.66338 28822 ft 388 kts 207°
2026-05-04 18:40 52.56811 2.64391 28227 ft 389 kts 207°
2026-05-04 18:41 52.54350 2.62375 27617 ft 386 kts 208°
2026-05-04 18:41 52.51989 2.60443 27029 ft 383 kts 208°
2026-05-04 18:41 52.49578 2.58476 26445 ft 381 kts 208°
2026-05-04 18:41 52.47215 2.56552 25888 ft 378 kts 208°
2026-05-04 18:42 52.44829 2.54612 25673 ft 391 kts 208°
2026-05-04 18:42 52.42358 2.52599 25423 ft 399 kts 208°
2026-05-04 18:42 52.39898 2.50599 25177 ft 400 kts 208°
2026-05-04 18:42 52.37397 2.48570 24934 ft 400 kts 208°
2026-05-04 18:43 52.34909 2.46554 24692 ft 399 kts 208°
2026-05-04 18:43 52.32420 2.44541 24457 ft 398 kts 208°
2026-05-04 18:43 52.30820 2.43248 24301 ft 398 kts 208°
2026-05-04 18:43 52.28343 2.41247 24064 ft 397 kts 208°
2026-05-04 18:44 52.25875 2.39259 23819 ft 396 kts 208°
2026-05-04 18:44 52.24237 2.37939 23661 ft 395 kts 207°
2026-05-04 18:44 52.20950 2.35293 23308 ft 394 kts 207°
2026-05-04 18:44 52.18492 2.33316 23037 ft 393 kts 207°
2026-05-04 18:45 52.16047 2.31352 22756 ft 391 kts 207°
2026-05-04 18:45 52.13594 2.29386 22483 ft 390 kts 207°
2026-05-04 18:45 52.11164 2.27439 22215 ft 389 kts 207°
2026-05-04 18:45 52.08733 2.25491 21949 ft 387 kts 207°
2026-05-04 18:46 52.06357 2.23592 22011 ft 386 kts 207°
2026-05-04 18:46 52.03939 2.21663 22029 ft 387 kts 207°
2026-05-04 18:46 52.01517 2.19732 22028 ft 388 kts 207°
2026-05-04 18:46 51.99121 2.17825 22029 ft 388 kts 207°
2026-05-04 18:47 51.96699 2.15900 22026 ft 387 kts 207°
2026-05-04 18:47 51.94272 2.13976 22025 ft 388 kts 207°
2026-05-04 18:47 51.91847 2.12052 22028 ft 388 kts 207°
2026-05-04 18:47 51.89416 2.10127 22026 ft 388 kts 207°
2026-05-04 18:48 51.86995 2.08216 22024 ft 388 kts 207°
2026-05-04 18:48 51.84571 2.06302 22022 ft 389 kts 207°
2026-05-04 18:48 51.82143 2.04385 22025 ft 388 kts 207°
2026-05-04 18:48 51.79716 2.02470 22024 ft 387 kts 207°
2026-05-04 18:49 51.77288 2.00563 22020 ft 388 kts 207°
2026-05-04 18:49 51.74841 1.98642 22023 ft 391 kts 207°
2026-05-04 18:49 51.72432 1.96751 22023 ft 390 kts 207°
2026-05-04 18:49 51.69964 1.94817 22020 ft 389 kts 207°
2026-05-04 18:50 51.67529 1.92883 22023 ft 390 kts 209°
2026-05-04 18:50 51.65279 1.90479 22018 ft 388 kts 219°
2026-05-04 18:50 51.63314 1.87493 21397 ft 391 kts 228°
2026-05-04 18:50 51.61557 1.84245 20861 ft 387 kts 229°
2026-05-04 18:51 51.59798 1.81001 20323 ft 383 kts 229°
2026-05-04 18:51 51.58046 1.77787 19816 ft 380 kts 228°
2026-05-04 18:51 51.56305 1.74606 19299 ft 378 kts 228°
2026-05-04 18:51 51.54568 1.71450 18799 ft 377 kts 228°
2026-05-04 18:52 51.52824 1.68298 18281 ft 377 kts 228°
2026-05-04 18:52 51.51089 1.65165 17727 ft 375 kts 228°
2026-05-04 18:52 51.49463 1.61901 17219 ft 373 kts 236°
2026-05-04 18:52 51.48233 1.58239 16713 ft 372 kts 247°
2026-05-04 18:53 51.47332 1.54365 16214 ft 370 kts 250°
2026-05-04 18:53 51.46446 1.50491 15707 ft 369 kts 250°
2026-05-04 18:53 51.45558 1.46641 15203 ft 367 kts 250°
2026-05-04 18:53 51.44669 1.42815 14701 ft 365 kts 249°
2026-05-04 18:54 51.43541 1.39192 14228 ft 363 kts 237°
2026-05-04 18:54 51.41976 1.36053 14012 ft 363 kts 225°
2026-05-04 18:54 51.40052 1.33447 13684 ft 361 kts 216°
2026-05-04 18:54 51.38032 1.31061 13485 ft 361 kts 216°
2026-05-04 18:55 51.36014 1.28673 13282 ft 360 kts 217°
2026-05-04 18:55 51.32006 1.23933 12727 ft 355 kts 216°
2026-05-04 18:55 51.30033 1.21605 12211 ft 352 kts 216°
2026-05-04 18:56 51.28072 1.19295 11704 ft 349 kts 216°
2026-05-04 18:56 51.26153 1.17039 11219 ft 346 kts 216°
2026-05-04 18:56 51.24213 1.14764 10719 ft 343 kts 216°
2026-05-04 18:56 51.22304 1.12524 10230 ft 340 kts 216°
2026-05-04 18:57 51.20418 1.10306 9893 ft 332 kts 216°
2026-05-04 18:57 51.18598 1.08167 9760 ft 317 kts 216°
2026-05-04 18:57 51.16855 1.06127 9626 ft 305 kts 216°
2026-05-04 18:57 51.15182 1.04170 9495 ft 293 kts 216°
2026-05-04 18:58 51.13557 1.02271 9224 ft 286 kts 216°
2026-05-04 18:58 51.11957 1.00408 9017 ft 284 kts 216°
2026-05-04 18:58 51.10357 0.98546 9026 ft 285 kts 216°
2026-05-04 18:58 51.08759 0.96689 9027 ft 286 kts 216°
2026-05-04 18:59 51.07164 0.94785 9027 ft 286 kts 221°
2026-05-04 18:59 51.05791 0.92503 9007 ft 285 kts 232°
2026-05-04 18:59 51.05063 0.90780 9008 ft 284 kts 240°
2026-05-04 18:59 51.04191 0.87950 9011 ft 284 kts 244°
2026-05-04 19:00 51.03350 0.85114 8881 ft 282 kts 244°
2026-05-04 19:00 51.02509 0.82305 8459 ft 281 kts 244°
2026-05-04 19:00 51.01669 0.79507 8075 ft 279 kts 244°
2026-05-04 19:00 51.00835 0.76733 7998 ft 279 kts 244°
2026-05-04 19:01 50.99996 0.73947 8011 ft 280 kts 244°
2026-05-04 19:01 50.99155 0.71148 8006 ft 281 kts 244°
2026-05-04 19:01 50.98317 0.68357 8001 ft 280 kts 244°
2026-05-04 19:01 50.97480 0.65575 7679 ft 278 kts 244°
2026-05-04 19:02 50.96647 0.62813 7252 ft 277 kts 244°
2026-05-04 19:02 50.95819 0.60066 7023 ft 275 kts 244°
2026-05-04 19:02 50.94993 0.57327 7000 ft 276 kts 244°
2026-05-04 19:02 50.94182 0.54554 7004 ft 277 kts 250°
2026-05-04 19:03 50.93919 0.51556 7008 ft 276 kts 273°
2026-05-04 19:03 50.94077 0.48517 7006 ft 277 kts 276°
2026-05-04 19:03 50.94284 0.45484 7007 ft 276 kts 276°
2026-05-04 19:03 50.94500 0.42460 7007 ft 276 kts 276°
2026-05-04 19:04 50.94718 0.39436 7007 ft 276 kts 276°
2026-05-04 19:04 50.94938 0.36405 7007 ft 276 kts 276°
2026-05-04 19:04 50.95156 0.33380 7006 ft 276 kts 276°
2026-05-04 19:04 50.95375 0.30353 7007 ft 276 kts 276°
2026-05-04 19:05 50.95594 0.27329 7007 ft 276 kts 276°
2026-05-04 19:05 50.95812 0.24301 7007 ft 276 kts 276°
2026-05-04 19:05 50.96030 0.21274 7007 ft 276 kts 276°
2026-05-04 19:05 50.96248 0.18246 7006 ft 276 kts 276°
2026-05-04 19:06 50.96465 0.15220 7005 ft 276 kts 276°
2026-05-04 19:06 50.96680 0.12194 6991 ft 276 kts 276°
2026-05-04 19:06 50.96892 0.09191 6650 ft 273 kts 276°
2026-05-04 19:06 50.97093 0.06319 6438 ft 264 kts 276°
2026-05-04 19:07 50.97295 0.03374 6057 ft 261 kts 276°
2026-05-04 19:07 50.97484 0.00501 5656 ft 260 kts 276°
2026-05-04 19:07 50.97664 -0.02321 5240 ft 259 kts 276°
2026-05-04 19:07 50.97835 -0.05173 4827 ft 259 kts 276°
2026-05-04 19:08 50.98002 -0.08004 4435 ft 257 kts 276°
2026-05-04 19:08 50.98167 -0.10813 4034 ft 256 kts 276°
2026-05-04 19:08 50.98328 -0.13626 3618 ft 255 kts 276°
2026-05-04 19:08 50.98483 -0.16436 3217 ft 254 kts 276°
2026-05-04 19:09 50.98628 -0.19205 3005 ft 253 kts 276°
2026-05-04 19:09 50.98772 -0.22012 3002 ft 255 kts 276°
2026-05-04 19:09 50.98915 -0.24830 3014 ft 256 kts 276°
2026-05-04 19:09 50.99061 -0.27636 3003 ft 256 kts 276°
2026-05-04 19:10 50.99205 -0.30448 3005 ft 255 kts 276°
2026-05-04 19:10 50.99350 -0.33244 3001 ft 256 kts 276°
2026-05-04 19:10 50.99494 -0.36047 3004 ft 255 kts 276°
2026-05-04 19:10 50.99638 -0.38854 3003 ft 256 kts 276°
2026-05-04 19:11 50.99780 -0.41662 3009 ft 256 kts 276°
2026-05-04 19:11 50.99923 -0.44468 3017 ft 256 kts 276°
2026-05-04 19:11 51.00235 -0.47226 3003 ft 249 kts 291°
2026-05-04 19:11 51.00933 -0.49607 3008 ft 228 kts 310°
2026-05-04 19:12 51.02095 -0.51053 3009 ft 201 kts 336°
2026-05-04 19:12 51.04557 -0.52711 3055 ft 187 kts 341°
2026-05-04 19:12 51.05758 -0.53474 3019 ft 185 kts 342°
2026-05-04 19:13 51.06997 -0.53624 3001 ft 179 kts 19°
2026-05-04 19:13 51.08030 -0.52572 3025 ft 178 kts 42°
2026-05-04 19:13 51.08918 -0.51200 3014 ft 178 kts 46°
2026-05-04 19:13 51.09744 -0.49730 3015 ft 178 kts 50°
2026-05-04 19:14 51.10481 -0.48134 3009 ft 179 kts 62°
2026-05-04 19:14 51.10923 -0.46329 3020 ft 179 kts 72°
2026-05-04 19:14 51.11255 -0.44375 3019 ft 180 kts 75°
2026-05-04 19:14 51.11539 -0.42478 2917 ft 175 kts 76°
2026-05-04 19:15 51.11803 -0.40631 2730 ft 168 kts 76°
2026-05-04 19:15 51.12053 -0.38855 2524 ft 162 kts 76°
2026-05-04 19:15 51.12297 -0.37120 2307 ft 158 kts 75°
2026-05-04 19:15 51.12534 -0.35432 2102 ft 156 kts 76°
2026-05-04 19:16 51.12771 -0.33735 1892 ft 156 kts 76°
2026-05-04 19:16 51.13006 -0.32051 1685 ft 155 kts 76°
2026-05-04 19:16 51.13240 -0.30376 1466 ft 155 kts 76°
2026-05-04 19:16 51.13473 -0.28698 1260 ft 154 kts 76°
2026-05-04 19:17 51.13704 -0.27040 1039 ft 149 kts 76°
2026-05-04 19:17 51.13921 -0.25476 845 ft 145 kts 76°
2026-05-04 19:17 51.14131 -0.23912 664 ft 143 kts 78°
2026-05-04 19:17 51.14339 -0.22371 466 ft 143 kts 76°
2026-05-04 19:18 51.14561 -0.20843 253 ft 141 kts 77°
2026-05-04 19:18 51.14765 -0.19399 205 ft 114 kts 77°
2026-05-04 19:18 51.14887 -0.18628 208 ft 40 kts 65°
2026-05-04 19:18 51.15006 -0.18381 214 ft 19 kts 51°
2026-05-04 19:19 51.15048 -0.18300 210 ft 10 kts 50°
2026-05-04 19:19 51.15095 -0.18213 203 ft 5 kts 39°
2026-05-04 19:19 51.15107 -0.18201 205 ft 0 kts 30°